Regional Weather Roundup
Issued by NWS

Home | Current Version | Previous Version | Graphics & Text | Print | Product List | Glossary On
Versions: 1 2 3 4 5 6 7 8 9 10 11 12 13 14 15 16 17 18 19 20 21 22 23 24 25 26 27 28 29 30 31 32 33 34 35 36 37 38 39 40 41 42 43 44 45 46 47 48 49 50
000
ASUS45 KABQ 232110
RWRNM
NEW MEXICO REGIONAL WEATHER ROUNDUP
NATIONAL WEATHER SERVICE ALBUQUERQUE NM
200 PM MST MON JAN 23 2017

NOTE: "FAIR" MEANS FEW OR NO CLOUDS BELOW 12,000 FEET AGL WITH NO
       SIGNIFICANT WEATHER OR OBSTRUCTIONS TO VISION.

      THIS PRODUCT IS RELEASED AS TWO VERSIONS.  ONE VERSION NEAR
      THE TOP OF THE HOUR CONTAINING PRELIMINARY DATA FROM ALBUQUERQUE
      AND OTHER STATIONS.  A FINAL VERSION WITH ADDITIONAL DATA IS
      ISSUED ABOUT 10 MINUTES AFTER THE HOUR.

NMZ501-503-504-510>518-232200-
NORTHWEST PLATEAU/NORTHCENTRAL MOUNTAINS

CITY           SKY/WX    TMP DP  RH WIND       PRES   REMARKS
FARMINGTON     CLOUDY    43  32  65 N8        29.69F
LOS ALAMOS     CLOUDY    41  28  60 S12G20    29.78F
SANTA FE       FAIR      51  29  42 W18G25    29.77F
TAOS           CLOUDY    39  23  52 SW14      29.76F WCI  31
ANGEL FIRE     CLOUDY    34  25  71 SW5       29.77F WCI  30

$$
NMZ402-403-502-505>509-232200-
WESTCENTRAL MOUNTAINS/SOUTHWEST MOUNTAINS

CITY           SKY/WX    TMP DP  RH WIND       PRES   REMARKS
GALLUP         CLOUDY    45  31  58 SW22G37   29.73F
GRANTS         FAIR      52  26  37 SW18G26   29.78F
SILVER CITY    FAIR      58  33  38 SW16G23   29.90F

$$
NMZ407-409-411-412-232200-
SOUTHERN DESERTS

CITY           SKY/WX    TMP DP  RH WIND       PRES   REMARKS
DEMING         FAIR      60  35  39 S7        29.88F
LAS CRUCES     FAIR      62  27  26 SW16      29.91F
HOLLOMAN AFB   FAIR      61  31  32 S14       29.90F
ALAMOGORDO     FAIR      61  30  31 S22G29    29.88F
T OR C         FAIR      63  27  25 SW21G32   29.82F

$$
NMZ519>523-232200-
CENTRAL VALLEYS/CENTRAL HIGHLANDS

CITY           SKY/WX    TMP DP  RH WIND       PRES   REMARKS
ALBUQUERQUE    FAIR      57  28  33 S21G30    29.76F
DOUBLE EAGLE   MOSUNNY   54  28  37 S16       29.78F
MORIARTY ARPT  FAIR      56  25  30 SW23G38   29.79F
CLINES CORNERS FAIR      48  27  44 SW30G39   29.80F
BELEN          FAIR      60  25  26 S24G30    29.76F
SOCORRO        FAIR      62  28  28 S15G23    29.78F

$$
NMZ524>526-539-540-232200-
SOUTHCENTRAL MOUNTAINS

CITY           SKY/WX    TMP DP  RH WIND       PRES   REMARKS
RUIDOSO        FAIR      50  27  40 SW28G49   29.88F

$$
NMZ527>531-232200-
NORTHEAST HIGHLANDS/NORTHEAST PLAINS

CITY           SKY/WX    TMP DP  RH WIND       PRES   REMARKS
LAS VEGAS      FAIR      50  23  34 W31G39    29.75F
RATON          FAIR      51  20  29 W33G48    29.70F
CLAYTON        FAIR      63  24  22 SW23G35   29.67F

$$
NMZ532>537-232200-
EASTCENTRAL PLAINS

CITY           SKY/WX    TMP DP  RH WIND       PRES   REMARKS
TUCUMCARI      FAIR      68  30  24 SW17G31   29.71F
CANNON AFB     FAIR      66  30  25 W28G33    29.77F
CLOVIS AIRPORT FAIR      66  30  26 SW22G30   29.78F

$$
NMZ028-029-538-232200-
SOUTHEAST PLAINS

CITY           SKY/WX    TMP DP  RH WIND       PRES   REMARKS
ROSWELL        FAIR      73  25  16 S25G31    29.77F
ARTESIA        FAIR      68  27  21 SW28G35   29.82F
CARLSBAD       FAIR      73  20  13 W22G30    29.82F
HOBBS          SUNNY     66  23  19 SW25G32   29.85F


$$




USA.gov is the U.S. government's official web portal to all federal, state and local government web resources and services.